STARLINK-1397 (45682 NORAD) Tracking and Keplerian Element Data

This shows tracking and keplerian element data for the satellite.

Feedback or suggestion? Click here.




ElementValue
Catalog45682
NameSTARLINK-1397
Epoch Orbit552
Epoch Day185.50001157
Epoch Year2020
RAAN24.8887
Inclination53.0021
Eccentricity9.59E-05
Argument of Perigee94.5399
Mean Anonmoly10.561
Mean Motion15.62761258
Decay Rate-0.00058488
L11 45682U 20035AB 20185.50001157 -.00058488 00000-0 -63732-3 0 9999
L22 45682 53.0021 24.8887 0000959 94.5399 10.5610 15.62761258 5525

Live tracking and technical data element details for STARLINK-1397 (NORAD 45682). STARLINK-1397 can be tracked NOW for your location showing map with azimuth and elevation plus other details from your city location.

Track the satellite on the map from your city or location and see movement details for azimuth, elevation, latitude, longitude, range, height, and movement on the map or in text.







IsCatalogInMostPopularTable: catalog: 45682, numindb: 7
Update: records affected: 1



GetName: 45682 STARLINK-1397

Hit Count: updated at: Sat, 04 Jul 2020 03:02:32 GMT